CW7520 Weather Reports


Display with metric or nautical units.
time (UTC)temp
F
wind
direction
speed
MPH
gust
MPH
rain 1hr
in
rain 24hr
in
rain mn
in
humidity
%
barometer
mb
20260831110008 56 0 0.0 0.0 0.00 0.00 0.00 77 1026.5
20260831105403 56 0 0.0 0.0 0.00 0.00 0.00 77 1026.5
20260831104503 57 0 0.0 0.0 0.00 0.00 0.00 77 1026.5
20260831103604 57 0 0.0 0.0 0.00 0.00 0.00 76 1026.5
20260831102708 58 0 0.0 0.0 0.00 0.00 0.00 74 1026.5
20260831101808 58 0 0.0 0.0 0.00 0.00 0.00 72 1026.5
20260831100904 59 0 0.0 0.0 0.00 0.00 0.00 72 1026.6
20260831100008 59 0 0.0 0.0 0.00 0.00 0.00 72 1026.5
20260831095403 59 0 0.0 0.0 0.00 0.00 0.00 72 1026.7
20260831094518 60 0 0.0 0.0 0.00 0.00 0.00 71 1026.7
20260831093814 60 0 0.0 0.0 0.00 0.00 0.00 71 1026.8
20260831092703 61 0 0.0 0.0 0.00 0.00 0.00 69 1026.8
20260831091803 61 0 0.0 0.0 0.00 0.00 0.00 68 1026.8
20260831091113 62 0 0.0 0.0 0.00 0.00 0.00 68 1026.9
20260831090219 62 0 0.0 0.0 0.00 0.00 0.00 68 1026.9
20260831085403 62 0 0.0 0.0 0.00 0.00 0.00 67 1026.8
20260831084508 63 0 0.0 0.0 0.00 0.00 0.00 66 1026.8
20260831083603 64 0 0.0 0.0 0.00 0.00 0.00 65 1026.9
20260831082918 64 0 0.0 0.0 0.00 0.00 0.00 64 1026.9
20260831082013 65 0 0.0 0.0 0.00 0.00 0.00 63 1026.9
20260831080903 66 0 0.0 0.0 0.00 0.00 0.00 62 1026.8
20260831080218 66 0 0.0 0.0 0.00 0.00 0.00 61 1026.8
20260831075614 67 0 0.0 0.0 0.00 0.00 0.00 60 1026.9
20260831074503 68 0 0.0 0.0 0.00 0.00 0.00 59 1026.8
20260831073608 68 0 0.0 0.0 0.00 0.00 0.00 58 1026.9
20260831072703 69 0 0.0 0.0 0.00 0.00 0.00 57 1026.8
20260831071809 69 0 0.0 0.0 0.00 0.00 0.00 57 1026.7
20260831070908 70 0 0.0 0.0 0.00 0.00 0.00 56 1026.8
20260831070003 70 0 0.0 0.0 0.00 0.00 0.00 56 1026.9
20260831065408 70 0 0.0 0.0 0.00 0.00 0.00 55 1026.8
20260831064504 70 0 0.0 0.0 0.00 0.00 0.00 54 1026.9
20260831063818 70 0 0.0 0.0 0.00 0.00 0.00 53 1026.9
20260831062703 70 0 0.0 0.0 0.00 0.00 0.00 52 1027.1
20260831061804 70 0 0.0 0.0 0.00 0.00 0.00 48 1027.1
20260831060905 70 0 0.0 0.0 0.00 0.00 0.00 48 1027.2
20260831060003 70 0 0.0 0.0 0.00 0.00 0.00 47 1027.3
20260831055408 70 0 0.0 0.0 0.00 0.00 0.00 45 1027.5
20260831054503 70 0 0.0 0.0 0.00 0.00 0.00 48 1027.5
20260831053605 70 0 0.0 0.0 0.00 0.00 0.00 46 1027.5
20260831052708 70 0 0.0 0.0 0.00 0.00 0.00 48 1027.6
20260831051813 70 0 0.0 0.0 0.00 0.00 0.00 49 1027.6
20260831050904 70 0 0.0 0.0 0.00 0.00 0.00 49 1027.8
20260831050004 70 0 0.0 0.0 0.00 0.00 0.00 51 1027.9
20260831045403 70 0 0.0 0.0 0.00 0.00 0.00 51 1028.0
20260831044504 70 0 0.0 0.0 0.00 0.00 0.00 51 1028.3
20260831043613 70 0 0.0 0.0 0.00 0.00 0.00 51 1028.4
20260831042703 70 0 0.0 0.0 0.00 0.00 0.00 51 1028.5
20260831041808 70 0 0.0 0.0 0.00 0.00 0.00 52 1028.7
20260831040903 69 0 0.0 0.0 0.00 0.00 0.00 56 1028.8
20260831040008 69 0 0.0 0.0 0.00 0.00 0.00 55 1028.9
20260831035408 69 0 0.0 0.0 0.00 0.00 0.00 57 1028.9
20260831034718 69 0 0.0 0.0 0.00 0.00 0.00 56 1029.0
20260831033813 69 0 0.0 0.0 0.00 0.00 0.00 56 1029.2
20260831032713 69 0 0.0 0.0 0.00 0.00 0.00 56 1029.4
20260831032014 69 0 0.0 0.0 0.00 0.00 0.00 57 1029.5
20260831030905 68 0 0.0 0.0 0.00 0.00 0.00 58 1029.8
20260831030214 68 0 0.0 0.0 0.00 0.00 0.00 58 1029.9
20260831025403 68 0 0.0 0.0 0.00 0.00 0.00 59 1030.0
20260831024508 68 0 0.0 0.0 0.00 0.00 0.00 58 1030.1
20260831023815 67 0 0.0 0.0 0.00 0.00 0.00 57 1030.3
20260831022703 67 0 0.0 0.0 0.00 0.00 0.00 60 1030.5
20260831021810 67 0 0.0 0.0 0.00 0.00 0.00 58 1030.7
20260831021113 67 0 0.0 0.0 0.00 0.00 0.00 60 1030.9
20260831020010 66 0 0.0 0.0 0.00 0.00 0.00 62 1031.0
20260831015615 66 0 0.0 0.0 0.00 0.00 0.00 60 1031.2
20260831014503 65 0 0.0 0.0 0.00 0.00 0.00 64 1031.3
20260831013605 64 0 0.0 0.0 0.00 0.00 0.00 65 1031.4
20260831012708 64 0 0.0 0.0 0.00 0.00 0.00 65 1031.5
20260831011808 64 0 0.0 0.0 0.00 0.00 0.00 65 1031.5
20260831010908 63 0 0.0 0.0 0.00 0.00 0.00 65 1031.6
20260831010008 63 0 0.0 0.0 0.00 0.00 0.00 66 1031.8
20260831005613 63 0 0.0 0.0 0.00 0.00 0.00 66 1031.8
20260831004503 62 0 0.0 0.0 0.00 0.00 0.00 68 1031.9
20260831003605 61 0 0.0 0.0 0.00 0.00 0.00 69 1032.0
20260831002703 60 0 0.0 0.0 0.00 0.00 0.00 71 1032.1
20260831001813 60 0 0.0 0.0 0.00 0.00 0.00 72 1032.2
20260831000905 59 0 0.0 0.0 0.00 0.00 0.00 75 1032.2
20260831000008 58 0 0.0 0.0 0.00 0.00 0.00 76 1032.2
20260830235405 57 0 0.0 0.0 0.00 0.00 0.00 76 1032.2
20260830234508 57 0 0.0 0.0 0.00 0.00 0.00 78 1032.2
20260830233603 56 0 0.0 0.0 0.00 0.00 0.00 80 1032.3
20260830232919 55 0 0.0 0.0 0.00 0.00 0.00 83 1032.3
20260830232018 54 0 0.0 0.0 0.00 0.00 0.00 84 1032.3
20260830230905 53 0 0.0 0.0 0.00 0.00 0.00 85 1032.2
20260830230227 53 0 0.0 0.0 0.00 0.00 0.00 86 1032.2
20260830225403 52 0 0.0 0.0 0.00 0.00 0.00 87 1032.2
20260830224504 52 0 0.0 0.0 0.00 0.00 0.00 88 1032.4
20260830223813 52 0 0.0 0.0 0.00 0.00 0.00 88 1032.4
20260830222703 52 0 0.0 0.0 0.00 0.00 0.00 88 1032.4
20260830221805 51 0 0.0 0.0 0.00 0.00 0.00 89 1032.4
20260830220903 51 0 0.0 0.0 0.00 0.00 0.00 89 1032.4
20260830220008 51 0 0.0 0.0 0.00 0.00 0.00 88 1032.3
20260830215403 51 0 0.0 0.0 0.00 0.00 0.00 89 1032.3
20260830214505 50 0 0.0 0.0 0.00 0.00 0.00 89 1032.3
20260830213605 50 0 0.0 0.0 0.00 0.00 0.00 88 1032.2
20260830212710 50 0 0.0 0.0 0.00 0.00 0.00 88 1032.1
20260830211805 50 0 0.0 0.0 0.00 0.00 0.00 88 1032.0
20260830210903 50 0 0.0 0.0 0.00 0.00 0.00 88 1032.0
20260830210013 50 0 0.0 0.0 0.00 0.00 0.00 88 1032.0
20260830205403 50 0 0.0 0.0 0.00 0.00 0.00 88 1032.0
20260830204505 50 0 0.0 0.0 0.00 0.00 0.00 88 1032.1
20260830203605 50 0 0.0 0.0 0.00 0.00 0.00 88 1032.1
20260830202705 50 0 0.0 0.0 0.00 0.00 0.00 88 1032.1
20260830201805 50 0 0.0 0.0 0.00 0.00 0.00 88 1032.0
20260830200905 50 0 0.0 0.0 0.00 0.00 0.00 88 1032.0
20260830200218 50 0 0.0 0.0 0.00 0.00 0.00 88 1032.0
20260830195403 50 0 0.0 0.0 0.00 0.00 0.00 88 1032.0
20260830194503 50 0 0.0 0.0 0.00 0.00 0.00 88 1032.0
20260830193605 50 0 0.0 0.0 0.00 0.00 0.00 88 1032.0
20260830192705 50 0 0.0 0.0 0.00 0.00 0.00 88 1032.0
20260830191805 50 0 0.0 0.0 0.00 0.00 0.00 88 1031.8
20260830190903 50 0 0.0 0.0 0.00 0.00 0.00 88 1031.8
20260830190217 50 0 0.0 0.0 0.00 0.00 0.00 88 1031.8
20260830185405 50 0 0.0 0.0 0.00 0.00 0.00 88 1031.8
20260830184504 50 0 0.0 0.0 0.00 0.00 0.00 88 1031.8
20260830183605 50 0 0.0 0.0 0.00 0.00 0.00 88 1031.9
20260830182705 50 0 0.0 0.0 0.00 0.00 0.00 88 1031.9
20260830182014 50 0 0.0 0.0 0.00 0.00 0.00 88 1032.0
20260830180905 50 0 0.0 0.0 0.00 0.00 0.00 88 1032.0
20260830180005 50 0 0.0 0.0 0.00 0.00 0.00 88 1032.0
20260830175403 50 0 0.0 0.0 0.00 0.00 0.00 88 1032.0
20260830174716 50 0 0.0 0.0 0.00 0.00 0.00 88 1032.1
20260830173603 50 0 0.0 0.0 0.00 0.00 0.00 88 1032.2
20260830172705 50 0 0.0 0.0 0.00 0.00 0.00 88 1032.2
20260830171803 50 0 0.0 0.0 0.00 0.00 0.00 88 1032.2
20260830170905 50 0 0.0 0.0 0.00 0.00 0.00 88 1032.2
20260830170005 50 0 0.0 0.0 0.00 0.00 0.00 88 1032.3
20260830165404 50 0 0.0 0.0 0.00 0.00 0.00 88 1032.3
20260830164503 50 0 0.0 0.0 0.00 0.00 0.00 88 1032.4
20260830163605 50 0 0.0 0.0 0.00 0.00 0.00 88 1032.4
20260830162705 50 0 0.0 0.0 0.00 0.00 0.00 88 1032.4
20260830161805 50 0 0.0 0.0 0.00 0.00 0.00 87 1032.4
20260830160903 50 0 0.0 0.0 0.00 0.00 0.00 87 1032.5
20260830160004 50 0 0.0 0.0 0.00 0.00 0.00 87 1032.5
20260830155405 50 0 0.0 0.0 0.00 0.00 0.00 87 1032.6
20260830154503 50 0 0.0 0.0 0.00 0.00 0.00 87 1032.6
20260830153603 50 0 0.0 0.0 0.00 0.00 0.00 87 1032.6
20260830152916 50 0 0.0 0.0 0.00 0.00 0.00 87 1032.6
20260830151805 50 0 0.0 0.0 0.00 0.00 0.00 87 1032.6
20260830150903 50 0 0.0 0.0 0.00 0.00 0.00 87 1032.8
20260830150005 50 0 0.0 0.0 0.00 0.00 0.00 87 1032.7
20260830145405 50 0 0.0 0.0 0.00 0.00 0.00 87 1032.7
20260830144505 50 0 0.0 0.0 0.00 0.00 0.00 87 1032.6
20260830143603 50 0 0.0 0.0 0.00 0.00 0.00 87 1032.6
20260830142705 50 0 0.0 0.0 0.00 0.00 0.00 87 1032.7
20260830141805 50 0 0.0 0.0 0.00 0.00 0.00 86 1032.8
20260830140904 50 0 0.0 0.0 0.00 0.00 0.00 86 1032.8
20260830140213 50 0 0.0 0.0 0.00 0.00 0.00 86 1032.9
20260830135405 50 0 0.0 0.0 0.00 0.00 0.00 86 1033.0
20260830134503 50 0 0.0 0.0 0.00 0.00 0.00 85 1033.0
20260830133605 50 0 0.0 0.0 0.00 0.00 0.00 85 1033.2
20260830132915 50 0 0.0 0.0 0.00 0.00 0.00 85 1033.1
20260830131803 50 0 0.0 0.0 0.00 0.00 0.00 84 1033.2
20260830130905 50 0 0.0 0.0 0.00 0.00 0.00 82 1033.2
20260830130219 50 0 0.0 0.0 0.00 0.00 0.00 83 1033.2
20260830125613 50 0 0.0 0.0 0.00 0.00 0.00 83 1033.2
20260830124714 50 0 0.0 0.0 0.00 0.00 0.00 82 1033.1
20260830123604 50 0 0.0 0.0 0.00 0.00 0.00 82 1033.0
20260830122705 50 0 0.0 0.0 0.00 0.00 0.00 82 1033.0
20260830121808 50 0 0.0 0.0 0.00 0.00 0.00 82 1033.0
20260830120903 50 0 0.0 0.0 0.00 0.00 0.00 82 1033.0
20260830120219 51 0 0.0 0.0 0.00 0.00 0.00 82 1033.0
20260830115404 51 0 0.0 0.0 0.00 0.00 0.00 82 1033.0
20260830114508 51 0 0.0 0.0 0.00 0.00 0.00 82 1032.9
20260830113613 51 0 0.0 0.0 0.00 0.00 0.00 81 1033.0
20260830112704 51 0 0.0 0.0 0.00 0.00 0.00 81 1032.9
20260830111808 52 0 0.0 0.0 0.00 0.00 0.00 81 1032.9
20260830110903 52 0 0.0 0.0 0.00 0.00 0.00 80 1032.9